[[{"header":{"parameterUnit":"m.s-1","parameterCategory":2,"la1":30.2991,"la2":30.254,"lo1":-89.0895,"lo2":-89.0444,"dy":0.0017,"dx":0.0017,"nx":28,"ny":28,"refTime":"2025-08-31T21:00:00:Z","depth":"0","parameterNumber":2,"parameterNumberName":"U-component_of_CURRENTS"},"data":[0,0,0,0,0,0,0,0,0,0,0,0,0,0,0,0,0,0,0,0,0,0,0,0,0,0,0,0,0,0,0,0,0,0,0,0,0,0,0,0,0,0,0,0,0,0,0,0,0,0,0,0,0,0,0,0,0,0,0.2627,0.2627,0,0.2661,0.2662,0.2662,0.2661,0.2661,0.2661,0.2661,0.2633,0.2632,0.2632,0,0,0,0,0,0,0,0,0,0,0,0,0,0.2562,0.2563,0.2626,0.2627,0.2628,0.2661,0.2662,0.2662,0.2661,0.2661,0.2661,0.2661,0.2633,0.2633,0.2632,0,0,0,0,0,0,0,0,0,0,0,0,0,0.2591,0.2564,0.2626,0.2634,0.2635,0.2661,0.2662,0.2662,0.2661,0.2661,0.2661,0.266,0.2633,0.2633,0.2632,0.2634,0,0,0.2629,0.2629,0,0,0,0,0,0,0,0,0.2589,0.2593,0.2632,0.2633,0.2635,0.2659,0.2629,0.265,0.2662,0.2649,0.2661,0.266,0.2638,0.2637,0.2641,0.2632,0.2631,0.2629,0.2629,0.2629,0.2628,0,0,0,0,0,0,0,0.2587,0.2591,0.2638,0.2633,0.2634,0.2636,0.264,0.2633,0.2641,0.265,0.265,0.2659,0.2638,0.2642,0.264,0.2631,0.2629,0.2629,0.2628,0.2628,0.2647,0.2648,0,0,0,0,0,0,0.2588,0.2589,0.2637,0.2639,0.2613,0.2638,0.2641,0.2649,0.2643,0.2643,0.2659,0.2658,0.2643,0.2641,0.2639,0.2667,0.2629,0.2628,0.2627,0.2646,0.2647,0.2648,0,0,0,0,0,0,0.2587,0.2592,0.2635,0.2617,0.2623,0.264,0.2648,0.265,0.2658,0.2651,0.2649,0.2665,0.2643,0.264,0.2644,0.2665,0.2627,0.2627,0.2645,0.2646,0.2648,0.2705,0,0,0,0,0,0,0.2585,0.2591,0.2597,0.2617,0.2624,0.2658,0.2649,0.2651,0.2665,0.2664,0.2656,0.2653,0.2643,0.2645,0.2643,0.2663,0.2626,0.2644,0.2646,0.2647,0.2702,0.2709,0.2714,0,0,0,0,0,0.2582,0.2591,0.2597,0.2603,0.2631,0.2659,0.2663,0.2671,0.2665,0.2675,0.267,0.2653,0.2655,0.2645,0.2642,0.2663,0.2643,0.2645,0.2647,0.27,0.2707,0.2714,0,0,0,0,0,0,0.2562,0.2593,0.2599,0.2616,0.264,0.266,0.2669,0.2675,0.268,0.2676,0.2663,0.2661,0.2674,0.2659,0.2648,0.2674,0.2647,0.2649,0.2688,0.2695,0.2701,0.271,0.2625,0,0,0,0,0,0.2562,0.2576,0.2608,0.262,0.2634,0.2652,0.2663,0.2673,0.2681,0.2683,0.2677,0.2673,0.2681,0.268,0.2679,0.2689,0.2703,0.2701,0.2707,0.2713,0.2719,0.2753,0.2763,0.2656,0.2656,0.2656,0,0,0.2554,0.2575,0.2581,0.2617,0.2633,0.2662,0.2657,0.268,0.2701,0.2678,0.2695,0.2693,0.2689,0.2706,0.271,0.2696,0.2756,0.2715,0.272,0.2723,0.2757,0.2767,0.2776,0.2657,0.2657,0.2657,0,0,0.2554,0.257,0.2586,0.2613,0.2649,0.2666,0.2675,0.2701,0.271,0.2729,0.2724,0.2736,0.2735,0.2746,0.275,0.2786,0.2787,0.2784,0.282,0.2854,0.2863,0.2871,0.2929,0.2942,0.2785,0.2785,0.2786,0,0.2543,0.2572,0.2595,0.2625,0.2647,0.2671,0.2697,0.2719,0.274,0.2755,0.2739,0.2766,0.2758,0.2796,0.2811,0.2801,0.2827,0.2793,0.2862,0.2871,0.2878,0.2935,0.2948,0.2788,0.2788,0.2788,0.2788,0,0.2566,0.2589,0.2602,0.265,0.2677,0.2702,0.2741,0.2766,0.2776,0.2797,0.283,0.2827,0.2846,0.2848,0.2839,0.2892,0.2898,0.2868,0.2846,0.2893,0.295,0.2963,0.2793,0.2792,0.2791,0.279,0,0,0.2535,0.2604,0.2607,0.2634,0.2691,0.2716,0.2761,0.281,0.2844,0.2863,0.2905,0.2921,0.2924,0.2929,0.2925,0.295,0.3031,0.2934,0.2934,0.2996,0.3133,0.3153,0.3169,0.3014,0.3016,0.3017,0.3161,0,0.2542,0.2596,0.2629,0.2678,0.271,0.2753,0.2793,0.2842,0.2876,0.2924,0.2945,0.2977,0.2956,0.2967,0.2995,0.3019,0.3064,0.2997,0.3074,0.3077,0.3093,0.3184,0.3066,0.3185,0.3174,0.3176,0.3178,0,0.255,0.2589,0.2635,0.2699,0.2716,0.275,0.2822,0.2863,0.2942,0.2968,0.3015,0.3035,0.3094,0.3053,0.3142,0.3101,0.3128,0.3142,0.3147,0.3153,0.3121,0.3131,0.3209,0.3147,0.3197,0.3196,0.3194,0,0.2519,0.2587,0.2621,0.2646,0.2728,0.2755,0.2798,0.2875,0.2919,0.3003,0.3046,0.3109,0.3151,0.3189,0.3239,0.3194,0.3339,0.3276,0.3328,0.333,0.3238,0.3229,0.3264,0.3344,0.3343,0.3343,0.3343,0,0.2512,0.2539,0.2611,0.2635,0.2676,0.2741,0.2793,0.2847,0.2939,0.299,0.3066,0.3121,0.3184,0.3271,0.329,0.338,0.339,0.3367,0.3376,0.3259,0.325,0.3195,0.3155,0.3348,0.3347,0.3346,0.3345,0,0.2468,0.2519,0.2559,0.2639,0.2661,0.269,0.278,0.2821,0.2921,0.2994,0.3026,0.3163,0.3282,0.3368,0.3456,0.3458,0.3441,0.3547,0.3427,0.3418,0.3376,0.3342,0.3273,0.3166,0.3621,0.3622,0.3624,0,0.2449,0.2469,0.2539,0.2557,0.259,0.2645,0.2678,0.2786,0.2835,0.3003,0.3035,0.3206,0.3314,0.3511,0.3548,0.3646,0.3513,0.3575,0.3455,0.3396,0.3364,0.3211,0.3112,0.3368,0.3367,0.3366,0.3365,0,0.2403,0.2426,0.2458,0.2497,0.253,0.2567,0.263,0.2673,0.2798,0.2902,0.3049,0.317,0.3376,0.3447,0.3597,0.3615,0.341,0.3562,0.3512,0.3198,0.3018,0.291,0.3274,0.3358,0.3359,0.3359,0.336,0.336,0.2349,0.2354,0.2394,0.2424,0.2456,0.248,0.248,0.2571,0.2667,0.2777,0.2958,0.3092,0.3278,0.3486,0.3498,0.3463,0.3397,0.3354,0.3334,0.3197,0.3034,0.3415,0.3495,0.3497,0.3498,0.3499,0.35,0,0.2279,0.2298,0.2319,0.2345,0.2339,0.2389,0.2433,0.2421,0.2489,0.2643,0.2778,0.2985,0.3119,0.3244,0.3338,0.3247,0.3048,0.316,0.2891,0.2813,0.3177,0.3108,0.3092,0.3092,0.3092,0.3092,0.3092,0.3092,0.2239,0.2234,0.2251,0.2221,0.2233,0.2184,0.2183,0.2197,0.2274,0.2392,0.2502,0.2641,0.2972,0.3195,0.3181,0.3093,0.2831,0.2724,0.2698,0.2953,0.2967,0.298,0.2905,0.2847,0.2846,0.2185,0.2181,0.2177]},{"header":{"parameterUnit":"m.s-1","parameterCategory":2,"la1":30.2991,"la2":30.254,"lo1":-89.0895,"lo2":-89.0444,"dy":0.0017,"dx":0.0017,"nx":28,"ny":28,"refTime":"2025-08-31T21:00:00:Z","depth":"0","parameterNumber":3,"parameterNumberName":"V-component_of_CURRENTS"},"data":[0,0,0,0,0,0,0,0,0,0,0,0,0,0,0,0,0,0,0,0,0,0,0,0,0,0,0,0,0,0,0,0,0,0,0,0,0,0,0,0,0,0,0,0,0,0,0,0,0,0,0,0,0,0,0,0,0,0,-0.023,-0.0231,0,-0.0298,-0.0299,-0.0299,-0.0348,-0.0348,-0.0348,-0.0349,-0.0436,-0.0438,-0.0441,0,0,0,0,0,0,0,0,0,0,0,0,0,-0.0184,-0.0184,-0.023,-0.0231,-0.0232,-0.0298,-0.0299,-0.03,-0.0348,-0.0348,-0.0349,-0.0349,-0.0436,-0.0438,-0.0441,0,0,0,0,0,0,0,0,0,0,0,0,0,-0.0224,-0.0184,-0.023,-0.0263,-0.0266,-0.0297,-0.0299,-0.03,-0.0348,-0.0348,-0.0349,-0.0349,-0.0435,-0.0438,-0.0441,-0.0452,0,0,-0.0451,-0.0452,0,0,0,0,0,0,0,0,-0.0221,-0.0226,-0.0257,-0.0261,-0.0264,-0.0314,-0.0314,-0.0351,-0.0348,-0.0318,-0.0349,-0.0349,-0.0396,-0.0402,-0.0416,-0.0456,-0.046,-0.0451,-0.0453,-0.0454,-0.0455,0,0,0,0,0,0,0,-0.0219,-0.0223,-0.0258,-0.0258,-0.0262,-0.0288,-0.0294,-0.0322,-0.0355,-0.0321,-0.0324,-0.0329,-0.0399,-0.0413,-0.0418,-0.0461,-0.0451,-0.0454,-0.0455,-0.0457,-0.0537,-0.0537,0,0,0,0,0,0,-0.0205,-0.022,-0.0256,-0.026,-0.0242,-0.0288,-0.0295,-0.0299,-0.0355,-0.0363,-0.0329,-0.0331,-0.0407,-0.0415,-0.0421,-0.0456,-0.0454,-0.0457,-0.0459,-0.0537,-0.0537,-0.0537,0,0,0,0,0,0,-0.0204,-0.0207,-0.0253,-0.0241,-0.0248,-0.0288,-0.0292,-0.03,-0.0313,-0.0361,-0.037,-0.0334,-0.0408,-0.0417,-0.0448,-0.0459,-0.0458,-0.0461,-0.0536,-0.0537,-0.0537,-0.0512,0,0,0,0,0,0,-0.0202,-0.0207,-0.0205,-0.024,-0.0249,-0.0267,-0.0292,-0.0301,-0.0315,-0.0319,-0.0368,-0.0377,-0.0409,-0.0443,-0.0451,-0.0463,-0.0464,-0.0536,-0.0536,-0.0537,-0.0513,-0.0512,-0.0511,0,0,0,0,0,-0.02,-0.0194,-0.0204,-0.0209,-0.0245,-0.0266,-0.0273,-0.0304,-0.0314,-0.0318,-0.0354,-0.0375,-0.0452,-0.0445,-0.0455,-0.0468,-0.0536,-0.0536,-0.0537,-0.0513,-0.0512,-0.0511,0,0,0,0,0,0,-0.0172,-0.02,-0.0211,-0.0214,-0.0236,-0.0274,-0.0279,-0.0298,-0.0329,-0.0333,-0.0377,-0.0388,-0.0421,-0.0444,-0.0435,-0.0492,-0.0498,-0.05,-0.0477,-0.0476,-0.0475,-0.0456,-0.0466,0,0,0,0,0,-0.0164,-0.0167,-0.0198,-0.0198,-0.0207,-0.0241,-0.0253,-0.0273,-0.0304,-0.0318,-0.0353,-0.0392,-0.043,-0.0451,-0.0484,-0.0512,-0.0526,-0.0527,-0.0526,-0.0525,-0.0516,-0.055,-0.0551,-0.0539,-0.0539,-0.0539,0,0,-0.0153,-0.0168,-0.017,-0.0193,-0.0213,-0.0226,-0.025,-0.0264,-0.028,-0.0322,-0.0352,-0.0388,-0.0436,-0.0472,-0.0488,-0.0493,-0.0535,-0.0526,-0.0525,-0.0516,-0.0551,-0.0552,-0.0553,-0.0539,-0.0539,-0.0539,0,0,-0.0131,-0.0145,-0.0142,-0.016,-0.0184,-0.0208,-0.0208,-0.0244,-0.0265,-0.0294,-0.0334,-0.037,-0.0424,-0.0464,-0.0491,-0.0502,-0.0527,-0.0516,-0.05,-0.0534,-0.0535,-0.0536,-0.0548,-0.055,-0.0518,-0.0518,-0.0518,0,-0.0115,-0.0118,-0.0144,-0.0149,-0.0158,-0.0196,-0.0196,-0.0227,-0.0269,-0.0282,-0.0299,-0.0379,-0.0422,-0.0469,-0.0481,-0.0501,-0.0515,-0.0501,-0.0532,-0.0534,-0.0535,-0.0547,-0.055,-0.0517,-0.0517,-0.0517,-0.0517,0,-0.0098,-0.0101,-0.01,-0.012,-0.0134,-0.0139,-0.018,-0.0198,-0.0226,-0.0257,-0.03,-0.036,-0.0403,-0.0432,-0.0464,-0.0501,-0.0504,-0.0525,-0.0532,-0.0535,-0.0547,-0.055,-0.0515,-0.0516,-0.0516,-0.0516,0,0,-0.0058,-0.0081,-0.008,-0.008,-0.0116,-0.0123,-0.0148,-0.0177,-0.0179,-0.0241,-0.025,-0.0338,-0.0363,-0.0394,-0.0441,-0.048,-0.0511,-0.0505,-0.0508,-0.051,-0.0569,-0.0522,-0.0521,-0.0539,-0.0539,-0.054,-0.057,0,-0.0033,-0.0027,-0.0049,-0.0046,-0.0046,-0.0084,-0.0095,-0.0129,-0.0162,-0.0182,-0.0257,-0.0285,-0.0353,-0.0364,-0.042,-0.048,-0.052,-0.0499,-0.057,-0.0572,-0.0526,-0.0524,-0.0494,-0.0514,-0.0573,-0.0574,-0.0574,0,-0.0009,-0.0007,0.0007,0.0002,0.0001,-0.0002,-0.0013,-0.003,-0.0077,-0.0102,-0.0155,-0.0202,-0.0273,-0.0321,-0.0438,-0.0421,-0.0492,-0.0545,-0.0548,-0.0513,-0.0531,-0.0523,-0.0518,-0.0675,-0.058,-0.0579,-0.0579,0,0.0036,0.0033,0.0051,0.0046,0.0032,0.0039,0.0032,0.0,0.001,-0.0044,-0.0034,-0.0137,-0.0155,-0.0277,-0.0387,-0.0416,-0.0495,-0.055,-0.0577,-0.0574,-0.0565,-0.0559,-0.0713,-0.0632,-0.0632,-0.0632,-0.0632,0,0.0071,0.0085,0.0078,0.0087,0.0123,0.0092,0.0129,0.0103,0.0099,0.0131,0.0018,0.0039,-0.0143,-0.0208,-0.0347,-0.0448,-0.0466,-0.0563,-0.0578,-0.0553,-0.0547,-0.0695,-0.0799,-0.0633,-0.0632,-0.0632,-0.0632,0,0.0118,0.0109,0.0134,0.0137,0.0147,0.0172,0.0206,0.0236,0.0213,0.0256,0.025,0.0182,0.0107,-0.006,-0.0222,-0.0358,-0.0564,-0.0519,-0.046,-0.0468,-0.065,-0.0751,-0.0906,-0.0974,-0.0568,-0.0567,-0.0566,0,0.0142,0.016,0.0184,0.0218,0.0226,0.0263,0.0303,0.0294,0.0339,0.0361,0.0402,0.0353,0.0358,0.0144,-0.0097,-0.0309,-0.0497,-0.0446,-0.0508,-0.0644,-0.0771,-0.0852,-0.0906,-0.0492,-0.0491,-0.049,-0.0489,0,0.0194,0.0205,0.0231,0.0304,0.0351,0.0405,0.0464,0.0524,0.0535,0.06,0.0694,0.071,0.0514,0.0345,0.0044,-0.0139,-0.0554,-0.0427,-0.0603,-0.0743,-0.0811,-0.0886,-0.0479,-0.0479,-0.048,-0.048,-0.0481,-0.0481,0.0244,0.0281,0.0329,0.0402,0.0463,0.0558,0.0633,0.0721,0.0842,0.0966,0.095,0.1024,0.0711,0.0328,0.0059,-0.0423,-0.0464,-0.0588,-0.0704,-0.0776,-0.0837,-0.0381,-0.0375,-0.0376,-0.0376,-0.0376,-0.0377,0,0.0315,0.036,0.043,0.0522,0.0614,0.0625,0.0754,0.0851,0.1037,0.1163,0.1276,0.1196,0.0812,0.0355,-0.0278,-0.0634,-0.0809,-0.0854,-0.1001,-0.1047,-0.0668,-0.0658,-0.0671,-0.0671,-0.067,-0.067,-0.067,-0.067,0.0359,0.0443,0.0479,0.0643,0.0716,0.0851,0.0938,0.1095,0.1221,0.1428,0.1507,0.1529,0.1198,0.0037,-0.0761,-0.0971,-0.1263,-0.1308,-0.1456,-0.1239,-0.1225,-0.1211,-0.1227,-0.1359,-0.136,-0.1781,-0.1786,-0.1789]}],[{"header":{"parameterUnit":"m.s-1","parameterCategory":2,"la1":30.2991,"la2":30.254,"lo1":-89.0895,"lo2":-89.0444,"dy":0.0017,"dx":0.0017,"nx":28,"ny":28,"refTime":"2025-08-31T21:00:00:Z","depth":"2","parameterNumber":2,"parameterNumberName":"U-component_of_CURRENTS"},"data":[0,0,0,0,0,0,0,0,0,0,0,0,0,0,0,0,0,0,0,0,0,0,0,0,0,0,0,0,0,0,0,0,0,0,0,0,0,0,0,0,0,0,0,0,0,0,0,0,0,0,0,0,0,0,0,0,0,0,0.2277,0.2277,0,0.2281,0.2281,0.2281,0.2298,0.2299,0.23,0.23,0.2317,0.2316,0.2316,0,0,0,0,0,0,0,0,0,0,0,0,0,0.2226,0.2227,0.2277,0.2277,0.2278,0.2281,0.2281,0.2281,0.2298,0.2299,0.23,0.23,0.2317,0.2316,0.2316,0,0,0,0,0,0,0,0,0,0,0,0,0,0.2239,0.2227,0.2277,0.2288,0.229,0.2281,0.2281,0.2281,0.2298,0.2299,0.23,0.2301,0.2317,0.2316,0.2316,0.2297,0,0,0.2316,0.2316,0,0,0,0,0,0,0,0,0.2238,0.2241,0.2287,0.2288,0.2289,0.2292,0.2269,0.2288,0.2298,0.2293,0.23,0.2301,0.231,0.2311,0.2306,0.2298,0.2298,0.2316,0.2316,0.2316,0.2315,0,0,0,0,0,0,0,0.2238,0.224,0.2277,0.2287,0.2288,0.2273,0.2277,0.2272,0.2295,0.2293,0.2295,0.2299,0.2311,0.2306,0.2307,0.2299,0.2316,0.2316,0.2315,0.2315,0.2367,0.2369,0,0,0,0,0,0,0.2244,0.224,0.2277,0.2277,0.2268,0.2274,0.2277,0.2288,0.2295,0.2297,0.2298,0.2299,0.2306,0.2307,0.2307,0.2363,0.2316,0.2315,0.2315,0.2366,0.2367,0.2369,0,0,0,0,0,0,0.2243,0.2247,0.2276,0.226,0.2263,0.2275,0.2286,0.2288,0.2309,0.2299,0.2301,0.232,0.2307,0.2308,0.2332,0.2361,0.2315,0.2315,0.2364,0.2366,0.2368,0.2423,0,0,0,0,0,0,0.2241,0.2247,0.2253,0.226,0.2264,0.2295,0.2286,0.2288,0.2309,0.2312,0.2318,0.2319,0.2308,0.2333,0.2332,0.236,0.2315,0.2362,0.2365,0.2368,0.242,0.2427,0.2434,0,0,0,0,0,0.224,0.2244,0.2253,0.2258,0.2274,0.2296,0.2297,0.2305,0.231,0.2326,0.2333,0.232,0.235,0.2334,0.2333,0.2361,0.2361,0.2364,0.2367,0.2416,0.2426,0.2433,0,0,0,0,0,0,0.2222,0.2247,0.2257,0.2269,0.2293,0.23,0.2308,0.2319,0.2335,0.2338,0.2333,0.2334,0.2378,0.2358,0.2339,0.2386,0.2356,0.2359,0.2394,0.2402,0.2409,0.2421,0.2315,0,0,0,0,0,0.2222,0.2238,0.2262,0.2275,0.2288,0.2304,0.2312,0.2324,0.2338,0.2347,0.2354,0.2362,0.2384,0.2385,0.2401,0.2409,0.2421,0.243,0.2437,0.2443,0.2453,0.2492,0.2504,0.238,0.238,0.238,0,0,0.2219,0.2235,0.2244,0.2274,0.2289,0.2312,0.2312,0.2336,0.2361,0.2344,0.238,0.2396,0.2399,0.2427,0.2441,0.2412,0.2488,0.2447,0.2452,0.2459,0.2497,0.2509,0.2519,0.2382,0.2382,0.2382,0,0,0.2224,0.2241,0.2257,0.2282,0.2313,0.2324,0.2341,0.2366,0.2386,0.2414,0.2426,0.2457,0.2468,0.2483,0.2489,0.254,0.254,0.2548,0.2572,0.261,0.2621,0.263,0.2676,0.2689,0.2532,0.2532,0.2532,0,0.2217,0.2245,0.2266,0.2292,0.2311,0.2337,0.2363,0.2386,0.2418,0.2448,0.2435,0.2497,0.2495,0.2547,0.2564,0.2557,0.2582,0.2538,0.2619,0.2629,0.2637,0.2682,0.2695,0.2535,0.2535,0.2534,0.2534,0,0.224,0.2263,0.2277,0.232,0.2345,0.2371,0.241,0.2449,0.247,0.2496,0.2564,0.2564,0.2603,0.2607,0.2595,0.2663,0.2665,0.264,0.2597,0.2653,0.2697,0.271,0.2539,0.2538,0.2537,0.2537,0,0,0.2227,0.2279,0.2292,0.2311,0.2362,0.2385,0.2443,0.2504,0.2549,0.2584,0.2643,0.2678,0.2695,0.2704,0.2703,0.2717,0.2796,0.2701,0.2701,0.2745,0.2898,0.2832,0.284,0.2787,0.2789,0.2791,0.2909,0,0.224,0.2286,0.2314,0.236,0.2382,0.2432,0.2485,0.2548,0.2588,0.2653,0.2689,0.2743,0.2727,0.2747,0.277,0.2796,0.2831,0.2767,0.2838,0.284,0.2774,0.2853,0.2646,0.2728,0.2922,0.2924,0.2925,0,0.2253,0.2284,0.2326,0.2383,0.2401,0.2437,0.2528,0.2574,0.2677,0.2723,0.279,0.2817,0.2884,0.284,0.2928,0.2892,0.2912,0.2914,0.2919,0.2846,0.2799,0.2701,0.2745,0.2947,0.2945,0.2944,0.2942,0,0.2233,0.229,0.2321,0.2342,0.2414,0.2456,0.2505,0.2601,0.2655,0.277,0.2827,0.2905,0.2946,0.2991,0.3007,0.2983,0.3083,0.3048,0.3016,0.3012,0.2844,0.282,0.3118,0.3118,0.3118,0.3117,0.3117,0,0.2224,0.2251,0.2315,0.2338,0.2403,0.2445,0.2509,0.2604,0.2695,0.2768,0.2859,0.2912,0.2983,0.3038,0.3053,0.3082,0.3133,0.3049,0.3044,0.2858,0.2836,0.3019,0.3006,0.3122,0.3121,0.312,0.3119,0,0.2179,0.2228,0.2263,0.2348,0.2393,0.243,0.2526,0.255,0.2679,0.2776,0.2824,0.2944,0.3021,0.3081,0.3143,0.3131,0.3161,0.3155,0.2938,0.2904,0.3062,0.3051,0.3157,0.3156,0.3155,0.3154,0.3153,0,0.2156,0.217,0.227,0.2298,0.2336,0.2395,0.2433,0.2554,0.258,0.2774,0.281,0.2935,0.2988,0.3078,0.3084,0.3135,0.3157,0.2951,0.2859,0.3085,0.3069,0.3059,0.305,0.2671,0.2667,0.2663,0.266,0,0.2108,0.2143,0.217,0.224,0.2284,0.2324,0.2389,0.2421,0.2551,0.2637,0.2733,0.2797,0.2926,0.2859,0.2937,0.2926,0.2927,0.2876,0.3181,0.2682,0.2633,0.2616,0.2621,0.2626,0.263,0.2632,0.2634,0.2635,0.2062,0.2065,0.2111,0.2155,0.2205,0.2234,0.2226,0.227,0.2323,0.2427,0.2556,0.2595,0.2675,0.2669,0.2619,0.2598,0.2791,0.2672,0.2681,0.2695,0.2607,0.2557,0.2521,0.2524,0.2526,0.2528,0.253,0,0.1995,0.2004,0.2029,0.2063,0.2037,0.2132,0.2171,0.2118,0.2111,0.224,0.2301,0.2192,0.2194,0.2269,0.2211,0.2246,0.2201,0.214,0.206,0.2098,0.213,0.2008,0.1767,0.1764,0.1761,0.1758,0,0,0.1958,0.1943,0.1947,0.1897,0.1906,0.187,0.1871,0.1846,0.1893,0.1872,0.1891,0.2087,0.2214,0.1945,0.1946,0.1838,0.1936,0.1771,0.2396,0.234,0.2367,0.2469,0.2329,0,0,0,0,0]},{"header":{"parameterUnit":"m.s-1","parameterCategory":2,"la1":30.2991,"la2":30.254,"lo1":-89.0895,"lo2":-89.0444,"dy":0.0017,"dx":0.0017,"nx":28,"ny":28,"refTime":"2025-08-31T21:00:00:Z","depth":"2","parameterNumber":3,"parameterNumberName":"V-component_of_CURRENTS"},"data":[0,0,0,0,0,0,0,0,0,0,0,0,0,0,0,0,0,0,0,0,0,0,0,0,0,0,0,0,0,0,0,0,0,0,0,0,0,0,0,0,0,0,0,0,0,0,0,0,0,0,0,0,0,0,0,0,0,0,0.0024,0.0024,0,-0.0032,-0.0033,-0.0033,-0.0079,-0.0079,-0.0079,-0.008,-0.0162,-0.0164,-0.0166,0,0,0,0,0,0,0,0,0,0,0,0,0,0.0057,0.0056,0.0024,0.0023,0.0023,-0.0032,-0.0033,-0.0034,-0.0078,-0.0079,-0.0079,-0.008,-0.0162,-0.0164,-0.0166,0,0,0,0,0,0,0,0,0,0,0,0,0,0.0025,0.0056,0.0024,-0.0005,-0.0008,-0.0032,-0.0033,-0.0034,-0.0078,-0.0079,-0.0079,-0.008,-0.0161,-0.0164,-0.0166,-0.0173,0,0,-0.0175,-0.0176,0,0,0,0,0,0,0,0,0.0027,0.0023,-0.0,-0.0003,-0.0007,-0.0048,-0.0052,-0.0081,-0.0078,-0.0053,-0.008,-0.008,-0.0125,-0.0131,-0.0142,-0.0177,-0.018,-0.0175,-0.0177,-0.0178,-0.0179,0,0,0,0,0,0,0,0.0029,0.0025,0.0001,-0.0001,-0.0005,-0.0028,-0.0033,-0.0058,-0.0087,-0.0055,-0.0058,-0.0063,-0.0128,-0.0139,-0.0144,-0.0182,-0.0175,-0.0178,-0.0179,-0.018,-0.0244,-0.0244,0,0,0,0,0,0,0.0041,0.0028,0.0002,-0.0001,0.001,-0.0028,-0.0033,-0.0035,-0.0086,-0.0094,-0.0062,-0.0064,-0.0134,-0.0141,-0.0147,-0.016,-0.0178,-0.0181,-0.0182,-0.0244,-0.0244,-0.0244,0,0,0,0,0,0,0.0042,0.0039,0.0005,0.0013,0.0007,-0.0027,-0.0029,-0.0036,-0.0051,-0.0091,-0.0099,-0.007,-0.0134,-0.0143,-0.0168,-0.0164,-0.0182,-0.0185,-0.0244,-0.0244,-0.0244,-0.0185,0,0,0,0,0,0,0.0043,0.004,0.0042,0.0014,0.0007,-0.0004,-0.0029,-0.0037,-0.0052,-0.0056,-0.0101,-0.0109,-0.0136,-0.0164,-0.0171,-0.0168,-0.0187,-0.0244,-0.0244,-0.0244,-0.0187,-0.0183,-0.0179,0,0,0,0,0,0.0044,0.0054,0.0042,0.0039,0.0011,-0.0004,-0.0009,-0.0037,-0.0051,-0.0053,-0.0085,-0.0108,-0.0169,-0.0166,-0.0174,-0.0172,-0.0244,-0.0244,-0.0244,-0.0188,-0.0184,-0.018,0,0,0,0,0,0,0.007,0.005,0.0036,0.0039,0.002,-0.0011,-0.0013,-0.0034,-0.006,-0.0063,-0.0106,-0.0116,-0.0142,-0.0163,-0.0158,-0.0191,-0.0211,-0.0212,-0.0166,-0.0162,-0.0158,-0.0142,-0.0189,0,0,0,0,0,0.0077,0.0079,0.0053,0.0056,0.0049,0.0017,0.0007,-0.001,-0.0036,-0.0049,-0.0082,-0.0116,-0.0147,-0.0158,-0.0192,-0.0202,-0.0227,-0.0208,-0.0204,-0.02,-0.0194,-0.0227,-0.0225,-0.0243,-0.0243,-0.0243,0,0,0.0087,0.0077,0.0077,0.0061,0.0045,0.0046,0.001,0.0002,0.0002,-0.0053,-0.0065,-0.0109,-0.015,-0.0168,-0.0181,-0.0184,-0.0209,-0.02,-0.0197,-0.0192,-0.0227,-0.0225,-0.0223,-0.0243,-0.0243,-0.0243,0,0,0.0115,0.0101,0.0113,0.0102,0.0085,0.0068,0.0068,0.0037,0.0022,0.0004,-0.0039,-0.0075,-0.0117,-0.0145,-0.0164,-0.0158,-0.0196,-0.0173,-0.0132,-0.0164,-0.0162,-0.0161,-0.0189,-0.0191,-0.0162,-0.0162,-0.0162,0,0.0129,0.014,0.0113,0.0123,0.0123,0.0082,0.0097,0.0079,0.0043,0.0033,0.001,-0.0067,-0.0103,-0.0127,-0.0127,-0.0149,-0.0174,-0.0142,-0.0157,-0.0157,-0.0157,-0.0186,-0.0189,-0.0159,-0.0159,-0.0159,-0.016,0,0.0165,0.0173,0.0181,0.0182,0.0177,0.0184,0.0159,0.0149,0.0122,0.0095,0.0055,-0.0002,-0.0047,-0.0066,-0.0094,-0.0114,-0.0134,-0.0155,-0.0164,-0.0151,-0.0183,-0.0187,-0.0155,-0.0156,-0.0157,-0.0157,0,0,0.02,0.0207,0.0209,0.0225,0.0211,0.0216,0.0218,0.0207,0.0214,0.0156,0.0151,0.0081,0.0033,0.0008,-0.0042,-0.0067,-0.0091,-0.0104,-0.0107,-0.0123,-0.0161,-0.0167,-0.0173,-0.0116,-0.0116,-0.0117,-0.0183,0,0.0237,0.0275,0.0264,0.0302,0.0322,0.0294,0.03,0.0283,0.026,0.0244,0.0169,0.014,0.0067,0.0048,0.0004,-0.0068,-0.01,-0.0071,-0.0179,-0.0182,-0.0182,-0.0177,-0.0156,-0.0212,-0.0187,-0.0188,-0.0188,0,0.0279,0.0301,0.0344,0.0371,0.0376,0.0387,0.0399,0.04,0.0363,0.0338,0.0283,0.0229,0.0165,0.0111,-0.0015,0.0005,-0.0074,-0.013,-0.0135,-0.0162,-0.0195,-0.0223,-0.0221,-0.0195,-0.0195,-0.0194,-0.0194,0,0.0326,0.0361,0.0401,0.0409,0.0425,0.0437,0.044,0.0423,0.0439,0.0399,0.0404,0.0302,0.0264,0.0148,0.0019,0.0002,-0.0107,-0.0146,-0.0228,-0.0229,-0.0243,-0.0244,-0.0228,-0.0228,-0.0227,-0.0227,-0.0227,0,0.0378,0.0412,0.0426,0.0449,0.0495,0.0485,0.0531,0.0513,0.0511,0.0536,0.045,0.0453,0.0274,0.0191,0.0054,-0.0095,-0.0089,-0.0218,-0.0245,-0.0222,-0.0221,-0.0233,-0.0233,-0.023,-0.0229,-0.0229,-0.0228,0,0.0429,0.0434,0.0486,0.051,0.0517,0.055,0.059,0.0632,0.0611,0.0644,0.0638,0.0562,0.0448,0.028,0.0102,-0.0035,-0.0177,-0.023,-0.0188,-0.0209,-0.0291,-0.0287,-0.0338,-0.0339,-0.034,-0.034,-0.034,0,0.0459,0.049,0.0531,0.0563,0.0576,0.0623,0.0662,0.0666,0.0715,0.0718,0.0743,0.066,0.0608,0.0346,0.0102,-0.0132,-0.0167,-0.0266,-0.03,-0.028,-0.0302,-0.0297,-0.0292,-0.0299,-0.0299,-0.0299,-0.0299,0,0.0516,0.0526,0.0566,0.063,0.0677,0.0743,0.0796,0.0848,0.0863,0.0893,0.0915,0.0882,0.064,0.0411,0.0097,-0.0067,-0.0231,-0.0275,-0.0265,-0.0267,-0.0247,-0.0267,-0.0263,-0.0299,-0.0299,-0.0299,-0.0299,-0.0299,0.0552,0.059,0.0636,0.0702,0.0763,0.0844,0.0903,0.0974,0.1044,0.108,0.1044,0.0993,0.0738,0.0338,0.0065,-0.0229,-0.0227,-0.0337,-0.0335,-0.0334,-0.0311,-0.0292,-0.0349,-0.0349,-0.0349,-0.035,-0.035,0,0.0591,0.0634,0.0704,0.0779,0.0859,0.0877,0.0983,0.1043,0.1129,0.1165,0.117,0.0934,0.0683,0.039,-0.0039,-0.0294,-0.0323,-0.038,-0.0355,-0.0353,-0.0351,-0.0328,-0.0372,-0.0372,-0.0373,-0.0374,0,0,0.061,0.0675,0.0712,0.0835,0.0898,0.0995,0.1054,0.1133,0.1182,0.1214,0.1188,0.1126,0.0779,0.0472,0.0122,-0.0123,-0.0184,-0.0179,-0.0135,-0.0063,-0.0058,-0.0301,-0.026,0,0,0,0,0]}],[{"header":{"parameterUnit":"m.s-1","parameterCategory":2,"la1":30.2991,"la2":30.254,"lo1":-89.0895,"lo2":-89.0444,"dy":0.0017,"dx":0.0017,"nx":28,"ny":28,"refTime":"2025-08-31T21:00:00:Z","depth":"4","parameterNumber":2,"parameterNumberName":"U-component_of_CURRENTS"},"data":[0,0,0,0,0,0,0,0,0,0,0,0,0,0,0,0,0,0,0,0,0,0,0,0,0,0,0,0,0,0,0,0,0,0,0,0,0,0,0,0,0,0,0,0,0,0,0,0,0,0,0,0,0,0,0,0,0,0,0.1338,0.1339,0,0.1394,0.1394,0.1395,0.1448,0.1449,0.145,0.1451,0.1523,0.1524,0.1525,0,0,0,0,0,0,0,0,0,0,0,0,0,0.1265,0.1266,0.1338,0.1339,0.1339,0.1393,0.1394,0.1395,0.1448,0.1449,0.145,0.1451,0.1522,0.1523,0.1525,0,0,0,0,0,0,0,0,0,0,0,0,0,0.1305,0.1267,0.1338,0.1373,0.1377,0.1393,0.1394,0.1395,0.1448,0.1449,0.145,0.1451,0.1522,0.1523,0.1525,0.1512,0,0,0.153,0.1531,0,0,0,0,0,0,0,0,0.1303,0.1308,0.1367,0.1371,0.1375,0.1416,0.1395,0.1435,0.1447,0.142,0.1451,0.1452,0.1488,0.1493,0.1499,0.1515,0.1518,0.1531,0.1532,0.1532,0.1533,0,0,0,0,0,0,0,0.13,0.1306,0.1359,0.1368,0.1373,0.1383,0.139,0.1403,0.1446,0.1422,0.1427,0.1434,0.1491,0.1497,0.1501,0.1519,0.1531,0.1532,0.1533,0.1534,0.1625,0.1626,0,0,0,0,0,0,0.1295,0.1303,0.1357,0.136,0.1343,0.1383,0.1391,0.1401,0.1446,0.1454,0.1433,0.1437,0.1493,0.1499,0.1504,0.1575,0.1532,0.1534,0.1535,0.1624,0.1625,0.1627,0,0,0,0,0,0,0.1294,0.13,0.1355,0.1334,0.1342,0.1383,0.1394,0.1401,0.1439,0.1454,0.1463,0.1467,0.1494,0.1501,0.1548,0.1575,0.1535,0.1536,0.1622,0.1624,0.1626,0.1662,0,0,0,0,0,0,0.1291,0.1299,0.1317,0.1334,0.1343,0.1384,0.1393,0.1402,0.1441,0.1446,0.1485,0.1491,0.1496,0.1545,0.155,0.1576,0.1538,0.162,0.1623,0.1625,0.1659,0.1665,0.1671,0,0,0,0,0,0.1288,0.1304,0.1318,0.1325,0.1363,0.1384,0.1391,0.1422,0.1441,0.146,0.1493,0.1492,0.1565,0.1548,0.1552,0.158,0.1619,0.1622,0.1625,0.1657,0.1664,0.167,0,0,0,0,0,0,0.1284,0.1311,0.1327,0.1352,0.1377,0.1395,0.142,0.1437,0.1477,0.1495,0.1508,0.1516,0.1565,0.1569,0.155,0.1615,0.1592,0.1596,0.1615,0.1621,0.1627,0.1634,0.1539,0,0,0,0,0,0.129,0.1312,0.1335,0.1359,0.1375,0.1402,0.1421,0.1443,0.1473,0.1493,0.1519,0.155,0.1575,0.1597,0.1617,0.1652,0.166,0.1674,0.168,0.1684,0.1695,0.173,0.174,0.1637,0.1637,0.1637,0,0,0.1295,0.1314,0.1328,0.1361,0.1385,0.1408,0.1418,0.1456,0.1482,0.1493,0.1549,0.1571,0.1589,0.163,0.1653,0.1642,0.1719,0.1688,0.1692,0.17,0.1734,0.1744,0.1753,0.1639,0.1639,0.1638,0,0,0.1303,0.1335,0.1353,0.1377,0.1419,0.1433,0.145,0.1487,0.1516,0.1561,0.1579,0.1623,0.166,0.1682,0.1694,0.1743,0.1744,0.1752,0.1789,0.1824,0.1832,0.184,0.1863,0.1872,0.1757,0.1757,0.1757,0,0.1312,0.1336,0.1363,0.1387,0.1412,0.1447,0.1472,0.15,0.155,0.1575,0.1588,0.1664,0.1682,0.1731,0.1754,0.1755,0.1773,0.176,0.183,0.1838,0.1845,0.1867,0.1877,0.1759,0.1759,0.1759,0.1758,0,0.1323,0.1357,0.1373,0.1413,0.1442,0.1473,0.1511,0.1551,0.159,0.1615,0.1684,0.1718,0.1764,0.1778,0.1784,0.1847,0.1843,0.183,0.1811,0.1858,0.1878,0.1887,0.1762,0.1761,0.1761,0.176,0,0,0.1302,0.1367,0.1376,0.1404,0.1462,0.1483,0.1535,0.1582,0.1623,0.1678,0.1733,0.1788,0.1818,0.1836,0.1856,0.1895,0.1962,0.1894,0.1895,0.1913,0.204,0.1934,0.1934,0.1965,0.1967,0.1969,0.2032,0,0.1306,0.1348,0.1384,0.1434,0.1459,0.1514,0.1556,0.1609,0.1659,0.172,0.1771,0.1833,0.1835,0.1879,0.1915,0.1957,0.199,0.1946,0.1996,0.1997,0.1894,0.1943,0.1975,0.2039,0.2042,0.2043,0.2044,0,0.1296,0.133,0.1376,0.1449,0.1467,0.1506,0.1586,0.1633,0.1716,0.176,0.1829,0.1873,0.1955,0.1947,0.2036,0.2012,0.2033,0.2055,0.2058,0.1954,0.1909,0.1984,0.2062,0.206,0.2059,0.2058,0.2057,0,0.1251,0.1324,0.1362,0.1387,0.147,0.1512,0.1567,0.1649,0.1701,0.1804,0.1855,0.1937,0.2007,0.2048,0.2104,0.2082,0.2192,0.2156,0.2076,0.2068,0.2128,0.2119,0.2211,0.2211,0.2211,0.2211,0.2211,0,0.1223,0.1259,0.135,0.1371,0.1425,0.1502,0.1575,0.1634,0.1738,0.1797,0.1885,0.1944,0.2042,0.2112,0.2131,0.2139,0.2212,0.2094,0.2082,0.2141,0.2133,0.2134,0.2124,0.2213,0.2213,0.2212,0.2212,0,0.1165,0.1224,0.1272,0.1369,0.1403,0.1448,0.1574,0.1623,0.1734,0.1819,0.1864,0.1984,0.2072,0.2145,0.2228,0.2172,0.2191,0.2173,0.2247,0.2236,0.2034,0.2026,0.2074,0.2071,0.2069,0.2066,0.2065,0,0.1135,0.1155,0.1255,0.1286,0.1337,0.1422,0.1475,0.1601,0.1656,0.1823,0.1851,0.199,0.2054,0.2081,0.2162,0.2192,0.2169,0.2156,0.2076,0.2039,0.2023,0.2019,0.2014,0.206,0.206,0.2059,0.2058,0,0.1078,0.1124,0.1166,0.1228,0.1288,0.1346,0.144,0.1471,0.1618,0.1733,0.1802,0.1859,0.1953,0.2012,0.2064,0.2074,0.2149,0.2127,0.2131,0.2057,0.2022,0.2008,0.2007,0.2049,0.205,0.2051,0.2052,0,0.104,0.1052,0.1113,0.116,0.1227,0.1256,0.1314,0.139,0.1464,0.1646,0.1667,0.1807,0.1932,0.1953,0.1996,0.201,0.197,0.1891,0.1907,0.1918,0.1839,0.1771,0.1721,0,0,0,0,0,0.0992,0.1002,0.1041,0.1082,0.1144,0.1185,0.1284,0.1349,0.1489,0.1496,0.1581,0.1658,0.1733,0.1807,0.1791,0.1929,0.1977,0.1902,0.1894,0.1998,0.2009,0.1932,0,0,0,0,0,0,0.096,0.0996,0.1012,0.1012,0.1028,0.1085,0.1143,0.1234,0.125,0.1396,0.1447,0.156,0.1658,0.1728,0.176,0.1783,0.1745,0.1994,0.199,0.1992,0.2002,0.2011,0.1935,0,0,0,0,0]},{"header":{"parameterUnit":"m.s-1","parameterCategory":2,"la1":30.2991,"la2":30.254,"lo1":-89.0895,"lo2":-89.0444,"dy":0.0017,"dx":0.0017,"nx":28,"ny":28,"refTime":"2025-08-31T21:00:00:Z","depth":"4","parameterNumber":3,"parameterNumberName":"V-component_of_CURRENTS"},"data":[0,0,0,0,0,0,0,0,0,0,0,0,0,0,0,0,0,0,0,0,0,0,0,0,0,0,0,0,0,0,0,0,0,0,0,0,0,0,0,0,0,0,0,0,0,0,0,0,0,0,0,0,0,0,0,0,0,0,0.0106,0.0106,0,0.0068,0.0068,0.0067,0.0038,0.0038,0.0038,0.0038,-0.0019,-0.002,-0.0022,0,0,0,0,0,0,0,0,0,0,0,0,0,0.0119,0.0119,0.0106,0.0106,0.0105,0.0068,0.0068,0.0067,0.0038,0.0038,0.0038,0.0037,-0.0019,-0.002,-0.0022,0,0,0,0,0,0,0,0,0,0,0,0,0,0.0099,0.0119,0.0106,0.0087,0.0086,0.0069,0.0068,0.0067,0.0038,0.0038,0.0038,0.0037,-0.0018,-0.002,-0.0022,-0.003,0,0,-0.0028,-0.0029,0,0,0,0,0,0,0,0,0.01,0.0099,0.0091,0.0089,0.0087,0.0059,0.0052,0.0034,0.0038,0.0055,0.0038,0.0037,0.0006,0.0002,-0.0006,-0.0033,-0.0035,-0.0029,-0.003,-0.0031,-0.0031,0,0,0,0,0,0,0,0.0102,0.01,0.009,0.009,0.0088,0.0069,0.0067,0.0048,0.0031,0.0053,0.0051,0.0049,0.0005,-0.0004,-0.0008,-0.0036,-0.0029,-0.003,-0.0032,-0.0032,-0.007,-0.007,0,0,0,0,0,0,0.0112,0.0102,0.0091,0.0089,0.0095,0.007,0.0066,0.0067,0.0031,0.0026,0.005,0.0048,-0.0,-0.0005,-0.001,-0.0006,-0.0031,-0.0033,-0.0034,-0.007,-0.007,-0.007,0,0,0,0,0,0,0.0112,0.0111,0.0092,0.0095,0.0092,0.007,0.0071,0.0066,0.006,0.0029,0.0023,0.0048,-0.0001,-0.0007,-0.0021,-0.0009,-0.0034,-0.0035,-0.0071,-0.007,-0.007,-0.0008,0,0,0,0,0,0,0.0113,0.0111,0.0115,0.0096,0.0092,0.009,0.0071,0.0066,0.006,0.0057,0.0026,0.002,-0.0001,-0.0018,-0.0023,-0.0012,-0.0037,-0.0071,-0.007,-0.007,-0.001,-0.0005,-0.0001,0,0,0,0,0,0.0113,0.0123,0.0116,0.0114,0.0098,0.0091,0.0087,0.007,0.006,0.0062,0.004,0.0022,-0.0019,-0.0019,-0.0025,-0.0015,-0.0071,-0.0071,-0.007,-0.0012,-0.0006,-0.0001,0,0,0,0,0,0,0.0131,0.0121,0.0112,0.0118,0.0108,0.0087,0.0087,0.0075,0.0058,0.0055,0.0025,0.0018,0.0009,-0.0013,-0.0012,-0.0026,-0.0048,-0.0049,-0.0002,0.0003,0.0008,0.0023,-0.0039,0,0,0,0,0,0.0137,0.0141,0.0127,0.0132,0.0129,0.0108,0.0103,0.0092,0.0075,0.0068,0.0046,0.0023,0.0006,-0.0003,-0.0023,-0.0029,-0.0057,-0.0028,-0.0023,-0.0019,-0.0012,-0.0044,-0.0041,-0.0068,-0.0068,-0.0068,0,0,0.0145,0.014,0.0142,0.0135,0.0125,0.0131,0.0104,0.0102,0.0108,0.0064,0.0065,0.0037,0.0007,0.0001,-0.0005,-0.0015,-0.0027,-0.0018,-0.0014,-0.001,-0.0043,-0.004,-0.0038,-0.0068,-0.0068,-0.0068,0,0,0.0168,0.016,0.0172,0.0168,0.0159,0.0149,0.0151,0.0133,0.0127,0.0121,0.0093,0.0076,0.0047,0.0032,0.002,0.0036,-0.0003,0.0026,0.0063,0.0033,0.0035,0.0036,0.0004,0.0002,0.003,0.003,0.003,0,0.0179,0.0193,0.0175,0.0187,0.019,0.0162,0.0178,0.0169,0.015,0.015,0.0129,0.0091,0.0064,0.0062,0.0066,0.0048,0.002,0.0048,0.0039,0.004,0.0041,0.0007,0.0004,0.0033,0.0033,0.0033,0.0032,0,0.0211,0.0223,0.0231,0.0238,0.0238,0.0247,0.0235,0.0234,0.0219,0.0206,0.0195,0.0154,0.0133,0.012,0.0097,0.0093,0.0068,0.0049,0.003,0.0048,0.001,0.0006,0.0038,0.0037,0.0036,0.0035,0,0,0.0237,0.0252,0.0256,0.0271,0.0267,0.0274,0.0286,0.0291,0.0302,0.0272,0.0279,0.0244,0.0216,0.02,0.0166,0.0138,0.0115,0.0099,0.0096,0.0074,0.0043,0.0019,0.0012,0.0091,0.0091,0.0091,0.0015,0,0.027,0.0309,0.0305,0.0342,0.036,0.0345,0.0361,0.036,0.0345,0.0343,0.0302,0.029,0.0249,0.0236,0.0204,0.0135,0.0107,0.0137,0.0023,0.002,0.0002,0.0007,0.009,0.0012,0.0011,0.001,0.001,0,0.0304,0.0327,0.037,0.04,0.0407,0.0425,0.0444,0.0453,0.0441,0.0426,0.0403,0.0366,0.0329,0.0285,0.0186,0.0205,0.0134,0.0076,0.0072,0.0027,-0.0012,-0.0012,0.0002,0.0003,0.0003,0.0004,0.0004,0,0.0334,0.0373,0.0412,0.0422,0.0448,0.0469,0.0482,0.0482,0.0496,0.0478,0.0476,0.0423,0.0391,0.0302,0.0185,0.0184,0.0064,0.0046,-0.004,-0.0043,-0.0026,-0.0027,-0.0021,-0.0021,-0.0021,-0.002,-0.002,0,0.0368,0.04,0.0434,0.0456,0.0507,0.0509,0.0553,0.0553,0.0558,0.0575,0.0523,0.0511,0.0392,0.031,0.0203,0.0066,0.0076,-0.0032,-0.0062,0.0001,0.0004,-0.003,-0.003,-0.0023,-0.0023,-0.0022,-0.0022,0,0.039,0.0411,0.0458,0.0502,0.0522,0.0556,0.0604,0.063,0.0626,0.0643,0.0641,0.0575,0.0462,0.0336,0.018,0.0089,-0.0038,-0.0089,-0.0011,-0.0037,-0.0128,-0.0124,-0.0185,-0.0187,-0.0188,-0.0189,-0.019,0,0.0404,0.0431,0.0493,0.0526,0.0549,0.0602,0.064,0.0661,0.0685,0.0677,0.0684,0.0596,0.0532,0.0303,0.016,-0.0044,-0.0075,-0.0141,-0.0132,-0.0121,-0.0144,-0.0138,-0.0133,-0.0192,-0.0192,-0.0192,-0.0193,0,0.0427,0.0447,0.0485,0.0554,0.0604,0.0662,0.0714,0.0738,0.0754,0.0758,0.0716,0.0605,0.0474,0.03,0.0139,-0.0007,-0.0098,-0.0155,-0.0153,-0.0145,-0.0129,-0.015,-0.0144,-0.0197,-0.0196,-0.0196,-0.0196,0,0.0438,0.0465,0.0513,0.0571,0.0637,0.0693,0.0726,0.0751,0.0775,0.0766,0.0748,0.0614,0.054,0.0317,0.0169,0.0022,-0.0016,-0.0064,-0.0067,-0.0065,-0.0011,0.0027,-0.0016,0,0,0,0,0,0.0443,0.0471,0.0527,0.0588,0.0654,0.0694,0.076,0.0784,0.0806,0.0782,0.0768,0.0647,0.0428,0.0334,0.0184,0.0135,-0.0049,-0.0049,-0.0108,-0.022,-0.0215,-0.0176,0,0,0,0,0,0,0.0444,0.0493,0.0519,0.0588,0.0631,0.0706,0.0749,0.077,0.0757,0.0758,0.0647,0.0599,0.0388,0.0512,0.0176,0.0132,0.0071,-0.0146,-0.015,-0.0223,-0.0219,-0.0215,-0.0173,0,0,0,0,0]}]]